THORAD AGENA D DEB, 4209

Orbit data source: Space-Track

THORAD AGENA D DEB, 4209 is space debris in LEO originally from a launch on Tue, 30 Sep 1969 UTC launched from the Air Force Western Test Range (AFWTR). Debris objects in space refer to the collection of defunct objects orbiting the Earth. Examples of debris include non-operational satellites, rocket bodies, and fragments generated from explosions, collisions, or faulty payload assembly.

Loading next visibility...
Identifier
4209, 1969-082BY
Orbit
LEO
Country
Flag of USUS
Related business
Manufacturer
Unknown
Mission
Spacecraft
Bus & Motor
Unknown
Mass
Unknown
Launch date (UTC)
1969-09-30 (57 years ago)
Launch vehicle
Unknown
Launch site
Air Force Western Test Range (AFWTR)
Object type
Payload
Rocket body
Debris
Shape & HBR
Unknown shape, 0.7 m
Radar Cross Section
Medium (>0.1 m² and <1 m²)

Expand to show TLE details & history
Last TLE update: 9 hours ago

TLE from 9 hours ago
0 THORAD AGENA D DEB
1 04209U 69082BY  26093.96146226  .00000129  00000-0  11265-3 0  9996
2 04209  70.0351  10.8243 0037956  54.7333 305.7319 14.05050358893533
Epoch: 2026-04-03T23:04Z
TLE epoch observation values (Epoch: 2026-04-03T23:04:30.339Z)
Latitude
-0.00002°
Longitude
-167.5902°
Altitude
862.67 km
Speed
7.43 km/s
True Right ascension
00h 43m 17s
True Declination
0° 00' 00"
Sunlit
Object was in daylight at epoch
Visualization orbit readout
Latitude
Unknown
Longitude
Unknown
Altitude
Unknown
Speed
Unknown
Apparent Right ascension
Unknown
Apparent Declination
Unknown
Sunlit
N/A
Visualization observer readout
Local Sidereal Time
13:32:38
Azimuth
Unknown
Elevation
Unknown
Doppler factor
Unknown
Orbital elements
Apogee altitude
901.918 km
Perigee altitude
846.862 km
Semi-major axis
7,252.527 km
Eccentricity
0.0038
Inclination
70.0351°
RAAN
10.8243°
Arg. of periapsis
54.7333°
True anomaly
305.37785°
Mean anomaly
305.7319°
Eccentric anomaly
305.55497°
Mean motion
3.51406 °/min
Orbital period
102.45 mins
BSTAR
0.00011265

Documentation

Showing up to 5 results
|